GW1765 Weather Reports


Display with metric or nautical units.
time (UTC)temp
F
wind
direction
speed
MPH
gust
MPH
rain 1hr
in
rain 24hr
in
rain mn
in
humidity
%
barometer
mb
20260904200037 52 90 1.0 2.0 0.00 0.00 0.00 87 1019.5
20260904195033 51 90 1.0 2.0 0.00 0.00 0.00 88 1019.4
20260904194050 49 128 2.0 3.0 0.00 0.00 0.00 86 1019.3
20260904193026 49 140 2.0 4.0 0.00 0.00 0.00 86 1019.1
20260904192025 49 158 4.0 6.0 0.00 0.00 0.00 86 1019.1
20260904191020 49 147 4.0 5.0 0.00 0.00 0.00 86 1019.0
20260904190016 48 171 4.0 6.0 0.00 0.00 0.00 86 1018.9
20260904185112 48 172 5.0 8.0 0.00 0.00 0.00 86 1018.8
20260904184110 48 153 6.0 7.0 0.00 0.00 0.00 85 1018.6
20260904183126 48 172 5.0 8.0 0.00 0.00 0.00 85 1018.5
20260904182103 47 149 4.0 7.0 0.00 0.00 0.00 84 1018.6
20260904181100 47 146 5.0 8.0 0.00 0.00 0.00 84 1018.5
20260904180055 47 169 5.0 7.0 0.00 0.00 0.00 84 1018.4
20260904175053 47 142 4.0 6.0 0.00 0.00 0.00 84 1018.4
20260904174109 47 154 4.0 6.0 0.00 0.00 0.00 84 1018.4
20260904173104 47 176 5.0 8.0 0.00 0.00 0.00 84 1018.2
20260904172040 47 158 5.0 8.0 0.00 0.00 0.00 83 1018.0
20260904171038 47 157 5.0 7.0 0.00 0.00 0.00 83 1017.9
20260904170033 48 176 5.0 8.0 0.00 0.00 0.00 84 1017.8
20260904165030 48 178 6.0 9.0 0.00 0.00 0.00 84 1017.6
20260904164026 48 166 5.0 8.0 0.00 0.00 0.00 84 1017.6
20260904163023 48 171 5.0 8.0 0.00 0.00 0.00 84 1017.5
20260904162019 48 176 8.0 10.0 0.00 0.00 0.00 84 1017.2
20260904161017 48 175 7.0 9.0 0.00 0.00 0.00 84 1017.1
20260904160113 48 168 6.0 8.0 0.00 0.00 0.00 84 1017.0
20260904155110 49 176 7.0 11.0 0.00 0.00 0.00 84 1016.9
20260904154105 49 176 7.0 11.0 0.00 0.00 0.00 84 1016.9
20260904153103 50 182 7.0 11.0 0.00 0.00 0.00 84 1016.9
20260904152058 50 185 7.0 11.0 0.00 0.00 0.00 84 1016.7
20260904151115 50 176 6.0 9.0 0.00 0.00 0.00 84 1016.8
20260904150054 50 180 6.0 10.0 0.00 0.00 0.00 84 1016.8
20260904145048 50 184 7.0 11.0 0.00 0.00 0.00 83 1016.8
20260904144044 49 180 7.0 11.0 0.00 0.00 0.00 83 1016.8
20260904143041 49 179 7.0 10.0 0.00 0.00 0.00 82 1017.0
20260904142100 49 197 6.0 9.0 0.00 0.00 0.00 82 1017.1
20260904141036 49 180 7.0 11.0 0.00 0.00 0.00 81 1017.1
20260904140031 49 188 6.0 8.0 0.00 0.00 0.00 81 1017.2
20260904135027 49 186 7.0 10.0 0.00 0.00 0.00 81 1017.2
20260904134023 49 180 5.0 8.0 0.00 0.00 0.00 80 1017.1
20260904133020 49 183 6.0 10.0 0.00 0.00 0.00 80 1016.9
20260904132016 49 190 8.0 11.0 0.00 0.00 0.00 80 1017.0
20260904131134 49 184 8.0 11.0 0.00 0.00 0.00 81 1016.9
20260904130130 50 209 9.0 11.0 0.00 0.00 0.00 82 1016.9
20260904125106 50 208 9.0 12.0 0.00 0.00 0.00 83 1016.8
20260904124103 50 197 7.0 11.0 0.00 0.00 0.00 83 1016.6
20260904123059 50 199 9.0 15.0 0.00 0.00 0.00 83 1016.3
20260904122058 50 193 6.0 10.0 0.00 0.00 0.00 83 1016.2
20260904121054 49 201 6.0 10.0 0.00 0.00 0.00 83 1016.1
20260904120049 49 180 6.0 11.0 0.00 0.00 0.00 83 1016.1
20260904115046 49 199 5.0 8.0 0.00 0.00 0.00 83 1015.7
20260904114042 49 194 7.0 11.0 0.00 0.00 0.00 83 1015.7
20260904113039 50 192 9.0 12.0 0.00 0.00 0.00 84 1015.8
20260904112036 50 192 9.0 13.0 0.00 0.00 0.00 85 1015.7
20260904111031 50 217 9.0 14.0 0.00 0.00 0.00 85 1015.5
20260904110029 49 217 7.0 14.0 0.00 0.00 0.00 84 1015.5
20260904105106 50 183 4.0 9.0 0.00 0.00 0.00 84 1015.5
20260904104021 50 184 3.0 5.0 0.00 0.00 0.00 85 1015.4
20260904103019 50 185 5.0 10.0 0.00 0.00 0.00 85 1015.4
20260904102114 50 211 5.0 10.0 0.00 0.00 0.00 85 1015.2
20260904101112 50 223 6.0 11.0 0.00 0.00 0.00 85 1015.0
20260904100109 50 226 3.0 7.0 0.00 0.00 0.00 85 1014.9
20260904095106 51 268 6.0 11.0 0.00 0.00 0.00 85 1014.9
20260904094100 51 244 10.0 16.0 0.00 0.00 0.00 85 1014.9
20260904093100 51 215 7.0 13.0 0.00 0.00 0.00 85 1014.7
20260904092053 51 238 6.0 10.0 0.00 0.00 0.00 84 1014.5
20260904091051 52 261 7.0 11.0 0.00 0.00 0.00 85 1014.4
20260904090046 52 228 11.0 17.0 0.00 0.00 0.00 85 1014.2
20260904085043 52 243 7.0 17.0 0.00 0.00 0.00 84 1014.0
20260904084101 52 241 5.0 9.0 0.00 0.00 0.00 84 1013.9
20260904083057 52 257 3.0 6.0 0.00 0.00 0.00 83 1013.9
20260904082032 52 225 6.0 8.0 0.00 0.01 0.00 83 1013.8
20260904081030 52 227 6.0 11.0 0.00 0.01 0.00 83 1013.5
20260904080028 53 261 5.0 9.0 0.00 0.01 0.00 83 1013.3
20260904075023 53 242 6.0 11.0 0.00 0.01 0.00 82 1013.1
20260904074018 53 263 3.0 8.0 0.00 0.01 0.00 82 1013.0
20260904073116 52 265 3.0 8.0 0.00 0.01 0.00 82 1012.8
20260904072113 53 262 3.0 8.0 0.00 0.01 0.00 81 1012.7
20260904071108 53 266 3.0 8.0 0.00 0.01 0.00 81 1013.0
20260904070105 52 275 4.0 8.0 0.00 0.01 0.00 80 1012.9
20260904065121 52 227 4.0 10.0 0.00 0.01 0.00 80 1012.7
20260904064058 52 260 5.0 9.0 0.00 0.01 0.00 79 1012.5
20260904063056 53 235 6.0 9.0 0.00 0.01 0.00 79 1012.5
20260904062052 53 258 4.0 8.0 0.00 0.01 0.00 78 1012.3
20260904061109 53 259 5.0 9.0 0.00 0.01 0.00 78 1012.2
20260904060045 54 249 6.0 9.0 0.00 0.01 0.00 77 1012.2
20260904055042 54 232 5.0 11.0 0.00 0.01 0.00 75 1012.4
20260904054037 55 230 6.0 10.0 0.00 0.01 0.00 72 1012.2
20260904053033 55 228 5.0 9.0 0.00 0.01 0.00 71 1012.2
20260904052032 56 242 9.0 16.0 0.00 0.01 0.00 71 1012.1
20260904051027 56 243 8.0 15.0 0.00 0.01 0.00 70 1011.8
20260904050022 58 237 11.0 15.0 0.00 0.01 0.00 70 1011.7
20260904045020 59 231 10.0 16.0 0.00 0.01 0.00 70 1011.5
20260904044017 61 235 9.0 15.0 0.00 0.01 0.00 72 1011.4
20260904043112 61 249 11.0 15.0 0.00 0.01 0.00 78 1011.3
20260904042110 59 256 11.0 15.0 0.00 0.01 0.00 81 1011.1
20260904041127 59 245 8.0 14.0 0.00 0.01 0.00 81 1011.0
20260904035058 60 241 12.0 20.0 0.00 0.01 0.00 85 1010.9
20260904034055 61 229 11.0 17.0 0.00 0.01 0.00 90 1010.9
20260904033052 62 253 10.0 16.0 0.00 0.01 0.00 95 1010.8
20260904032048 62 240 10.0 15.0 0.00 0.01 0.00 99 1010.7
20260904031046 61 232 12.0 21.0 0.00 0.01 0.00 99 1010.7
20260904030040 60 265 12.0 18.0 0.00 0.01 0.00 99 1010.6
20260904025057 58 265 11.0 17.0 0.00 0.01 0.00 99 1010.3
20260904024033 59 267 6.0 11.0 0.00 0.01 0.00 99 1010.1
20260904023031 58 309 5.0 8.0 0.00 0.01 0.00 99 1009.9
20260904022047 57 305 5.0 8.0 0.00 0.01 0.00 99 1009.5
20260904021024 58 314 5.0 8.0 0.00 0.01 0.00 99 1009.5
20260904020019 58 290 5.0 8.0 0.00 0.01 0.00 99 1009.6
20260904015036 58 316 1.0 7.0 0.00 0.01 0.00 99 1009.8
20260904014112 58 280 3.0 7.0 0.00 0.01 0.00 99 1009.9
20260904013132 58 300 3.0 6.0 0.00 0.01 0.00 99 1010.2
20260904012107 58 305 1.0 6.0 0.00 0.01 0.00 99 1010.2
20260904011102 58 310 1.0 5.0 0.00 0.01 0.00 99 1010.2
20260904010058 59 326 2.0 6.0 0.00 0.01 0.00 99 1010.1
20260904005057 59 0.0 3.0 0.00 0.01 0.00 99 1010.4
20260904004052 0 0.0 0.0 0.00 0.01 0.00 1010.3
20260904003050 0 0.0 0.0 0.00 0.01 0.00 1010.4
20260904002045 0 0.0 0.0 0.00 0.01 0.00 1010.3
20260904001042 0 0.0 0.0 0.00 0.01 0.00 1010.3
20260904000038 0 0.0 0.0 0.00 0.01 0.00 1010.4
20260903235034 58 0.0 2.0 0.00 0.01 0.00 99 1010.5
20260903234033 58 0.0 0.0 0.00 0.01 0.00 99 1010.8
20260903233030 58 293 0.0 5.0 0.00 0.01 0.00 99 1011.0
20260903232024 57 0.0 1.0 0.00 0.01 0.00 99 1011.1
20260903231020 58 0.0 2.0 0.00 0.01 0.00 99 1011.2
20260903230017 57 0.0 0.0 0.00 0.01 0.00 99 1011.2
20260903225114 57 0.0 0.0 0.00 0.01 0.00 99 1011.3
20260903224111 56 298 0.0 6.0 0.00 0.01 0.00 99 1011.2
20260903223107 56 0.0 0.0 0.00 0.01 0.00 99 1011.2
20260903222105 56 0.0 0.0 0.00 0.01 0.00 99 1011.2
20260903221100 56 0.0 0.0 0.00 0.01 0.00 99 1011.3
20260903220056 56 0.0 0.0 0.00 0.01 0.00 99 1011.5
20260903215053 56 0.0 0.0 0.00 0.01 0.00 99 1011.5
20260903214113 56 0.0 0.0 0.00 0.01 0.00 99 1011.6
20260903213047 56 0.0 0.0 0.00 0.01 0.00 99 1011.5
20260903212043 56 315 0.0 3.0 0.00 0.01 0.00 99 1011.4
20260903211039 56 0.0 3.0 0.00 0.01 0.00 99 1011.2
20260903210037 56 0.0 0.0 0.00 0.01 0.00 99 1011.1
20260903205052 56 0.0 0.0 0.00 0.01 0.00 99 1011.2
20260903204030 56 0.0 0.0 0.00 0.01 0.00 99 1011.2
20260903203025 56 0.0 0.0 0.00 0.01 0.00 99 1011.0
20260903202102 56 0.0 0.0 0.00 0.01 0.00 99 1011.0
20260903201019 56 0.0 0.0 0.00 0.01 0.00 99 1011.2